Theta_e
298 295 292 295 296 293 294 291 290 291 294 295 295 295 298 301 300 301 302 304 305 305 308 307 307 308 309 321 328 331 333 335 332 331 330 329 328 329 328 327 329 329 327 325
295 292 295 296 292 292 292 291 290 291 294 294 294 294 298 300 300 302 303 303 305 306 305 304 305 306 306 307 315 324 330 333 332 332 331 331 330 329 330 328 325 326 326 325
293 293 295 294 291 290 290 290 289 290 291 291 291 292 294 297 297 298 300 301 302 302 302 302 302 303 305 305 307 313 321 329 333 332 331 330 330 328 327 325 323 322 322 323
294 293 292 292 291 293 288 292 291 290 290 287 290 286 292 295 295 295 298 299 299 302 302 303 303 304 304 305 305 306 313 320 328 332 329 328 327 325 327 326 326 326 322 320
291 291 291 290 292 293 291 292 291 290 290 289 288 287 291 290 292 296 297 299 300 301 302 302 303 303 306 309 306 304 310 316 323 329 329 328 327 328 329 330 326 324 322 321
292 294 293 293 290 293 292 291 290 289 288 283 288 288 289 291 293 293 296 297 298 299 301 301 302 304 305 311 313 305 307 315 321 326 329 328 326 326 325 327 327 323 321 322
290 291 293 294 290 292 291 290 283 282 282 282 284 284 290 293 292 293 296 297 298 300 301 301 301 302 304 306 311 313 309 311 318 323 325 326 325 325 325 326 326 322 320 320
285 283 291 293 292 290 290 290 285 279 279 282 283 282 289 293 293 294 296 298 298 299 299 299 300 301 302 304 306 311 311 311 316 319 322 325 324 323 322 323 324 323 322 323
285 286 292 292 293 293 289 286 290 282 277 282 285 288 293 293 293 295 296 297 297 297 298 299 299 301 302 303 303 305 308 308 308 311 313 313 314 316 317 317 318 318 316 313
290 284 289 291 294 293 291 293 285 285 281 279 283 284 288 290 292 294 295 296 296 296 296 297 298 299 300 301 302 303 304 304 306 307 306 306 307 308 308 309 308 308 308 308
291 288 286 290 289 289 287 286 287 288 286 283 281 285 293 294 296 295 296 296 296 296 296 296 297 297 297 298 299 300 302 302 303 304 305 305 305 306 307 308 308 308 308 308
294 290 285 287 291 292 291 290 289 285 282 284 284 286 292 292 297 297 295 294 295 296 296 296 296 296 296 296 297 298 299 299 300 300 301 300 301 302 302 301 302 302 303 303
293 289 285 284 288 290 288 289 291 290 288 283 283 286 292 293 295 296 294 294 294 295 295 295 295 295 295 295 295 296 296 296 297 297 297 297 297 297 297 297 297 298 299 300
295 288 286 283 286 290 286 288 288 288 285 285 285 288 290 292 293 293 294 295 294 294 294 295 294 294 294 295 295 296 295 296 296 296 296 295 294 295 295 295 295 295 295 295
293 286 288 289 290 289 290 289 288 286 288 285 288 288 292 294 294 295 296 295 293 293 293 294 293 293 294 294 293 293 294 294 294 293 293 292 293 293 293 292 292 292 292 292
292 287 288 285 289 288 286 289 289 289 289 289 289 289 296 297 298 295 294 293 292 292 293 292 292 292 291 290 290 290 290 290 291 289 288 288 288 288 288 289 289 290 290 290
289 288 285 282 288 286 282 286 288 289 291 291 287 292 295 294 295 295 294 293 293 292 291 291 290 289 289 288 288 288 288 288 287 287 286 285 285 285 285 286 286 287 287 288
287 287 287 283 284 277 288 294 293 290 291 292 292 294 295 295 296 298 298 295 293 292 291 289 288 287 287 287 287 287 286 285 285 284 283 283 283 282 283 283 283 284 285 286
291 289 284 282 282 286 289 288 290 289 288 293 292 293 293 292 293 292 297 296 294 291 290 288 287 286 285 284 284 284 283 282 281 281 281 281 281 279 280 279 281 282 283 284
289 288 285 284 281 279 289 292 291 293 285 295 294 293 289 291 288 294 292 293 289 288 286 284 284 283 282 281 282 281 279 278 277 277 277 278 278 276 276 278 279 281 281 282
283 283 281 283 283 286 287 288 292 284 287 287 290 294 291 291 295 293 290 286 286 285 283 283 282 280 278 278 279 277 276 275 275 275 275 275 274 274 276 277 277 278 280 280
284 282 282 284 282 280 285 288 287 288 287 286 290 291 291 289 288 288 286 283 282 280 280 280 278 276 275 275 276 275 273 273 273 271 271 270 271 272 274 274 276 277 279 280
282 287 285 285 285 289 287 287 289 288 287 288 288 288 287 286 285 284 282 281 279 278 277 278 276 274 273 273 272 272 270 270 269 267 267 269 270 271 272 272 273 275 277 279
284 285 286 286 289 288 288 288 287 288 287 286 287 286 286 284 284 282 281 279 276 276 275 275 274 273 270 270 269 268 268 267 265 266 267 269 269 269 271 272 273 273 274 275
285 284 283 284 283 284 287 285 286 284 284 284 285 286 285 283 281 280 279 277 275 273 272 273 272 271 268 268 267 266 265 264 264 265 267 268 269 269 269 271 271 272 274 275
283 283 282 284 286 287 288 287 285 283 283 283 282 282 283 283 281 279 276 275 273 271 271 269 268 268 266 265 265 264 263 262 262 264 266 267 266 268 268 269 270 273 274 275
Wind_Speed
1 8 14 12 8 1 6 4 6 2 2 4 9 13 14 11 9 12 13 12 12 13 11 6 8 10 13 16 18 19 19 20 14 11 10 9 8 8 7 8 12 12 12 13
5 13 6 6 5 4 6 6 5 2 2 4 2 13 14 11 10 13 14 14 14 12 10 8 9 10 12 14 17 19 20 19 16 11 10 8 9 8 9 8 9 11 13 13
15 1 11 8 8 8 4 8 4 1 2 1 5 11 9 4 8 9 13 10 10 12 12 8 6 8 7 11 13 15 17 18 18 15 9 7 5 3 6 8 8 10 12 12
8 3 8 5 10 10 8 6 4 6 4 5 3 7 4 4 9 8 6 6 3 2 1 2 2 1 3 6 6 11 14 16 17 18 12 14 10 9 7 7 7 11 12 12
6 10 10 11 8 10 3 5 5 2 3 2 5 6 3 2 8 10 5 6 5 2 2 3 4 4 4 4 4 7 11 14 16 16 17 13 12 9 7 8 11 11 10 12
3 2 3 1 5 1 12 9 6 3 2 7 9 8 5 7 10 3 5 5 2 3 4 4 4 4 6 5 3 3 8 11 13 15 18 18 16 11 6 7 8 7 7 9
4 4 4 4 7 2 4 12 3 4 5 7 1 4 11 6 6 3 9 4 4 4 4 4 5 6 7 8 7 5 5 6 10 13 14 15 15 12 9 8 7 7 6 6
13 9 11 7 5 10 8 9 5 8 6 2 2 10 6 1 2 6 2 4 5 4 5 4 4 5 6 7 8 8 8 7 4 6 9 10 9 3 2 5 4 5 6 7
10 10 2 2 4 10 7 9 2 7 1 2 6 7 11 9 9 5 6 7 7 5 5 5 5 6 6 7 8 7 8 8 7 6 6 6 5 4 1 2 2 1 3 2
7 4 0 4 3 1 6 11 4 2 5 7 7 7 12 6 11 9 10 10 9 7 6 6 6 6 6 7 7 8 8 9 9 9 7 6 6 5 4 4 4 3 2 2
7 4 4 5 13 17 6 6 2 3 4 4 5 10 5 14 15 18 13 11 10 9 9 7 7 6 7 7 7 8 8 9 9 9 8 8 7 6 6 5 4 3 2 1
13 3 8 9 2 4 6 12 16 8 11 6 4 12 1 5 11 16 15 11 9 8 8 7 7 7 7 7 8 9 8 9 9 9 9 9 8 8 7 6 5 4 4 3
12 7 3 3 4 4 9 9 14 18 3 12 9 15 3 2 9 11 14 13 10 9 8 7 8 7 8 8 8 9 8 9 9 9 10 10 10 9 9 7 7 6 5 5
12 3 13 19 18 6 10 12 12 16 10 17 14 27 5 8 13 12 13 13 13 11 11 10 8 7 8 7 8 8 7 8 8 9 10 10 10 9 8 8 8 7 6 6
8 9 10 20 15 10 13 18 18 19 25 19 28 26 17 18 19 21 18 14 14 14 12 10 9 8 8 8 8 7 7 7 8 9 10 9 8 8 8 8 8 7 7 6
3 8 6 16 14 15 13 13 20 27 31 27 29 24 10 15 12 15 19 19 18 16 14 12 10 9 9 8 8 6 6 7 8 9 9 7 7 6 6 6 5 5 4 4
8 8 7 21 8 5 7 31 21 21 27 23 28 34 9 14 20 23 20 20 20 19 16 14 12 10 8 8 6 6 6 5 7 8 7 7 7 7 7 7 6 5 6 6
4 14 8 7 6 12 23 14 23 25 23 23 24 22 13 16 23 18 19 21 19 18 16 14 11 10 8 7 6 6 5 6 7 8 8 9 10 9 10 10 10 10 9 10
10 10 7 8 13 11 16 9 19 17 29 26 28 27 8 6 11 8 14 17 18 17 15 13 10 10 8 7 5 5 6 7 8 10 10 10 10 10 10 9 10 10 8 9
8 6 10 6 10 12 19 9 7 6 21 17 23 24 13 16 11 11 19 17 17 16 13 14 12 10 9 6 5 5 6 8 9 9 9 9 10 9 9 10 10 9 9 10
5 3 13 15 7 7 1 1 6 13 8 4 4 17 19 20 16 12 21 18 18 16 16 13 12 10 8 6 4 7 7 8 7 8 8 8 8 8 8 9 9 9 10 9
8 7 5 6 9 14 3 2 8 3 2 3 4 4 12 7 15 20 20 20 19 18 15 13 12 10 7 6 6 7 7 5 6 7 6 6 6 6 6 8 8 9 9 10
5 5 4 5 3 3 4 2 3 3 3 3 1 6 15 17 19 20 20 18 16 15 12 9 11 11 7 7 6 5 5 7 7 6 5 7 8 7 8 9 9 9 9 9
4 2 4 2 7 7 7 7 6 3 5 2 3 12 15 19 18 19 17 15 13 11 10 9 10 8 7 5 6 5 5 6 5 7 9 9 9 11 9 8 7 8 8 9
1 6 5 5 4 5 11 9 4 4 4 5 8 10 15 18 17 17 15 13 11 11 9 8 8 7 6 4 5 5 5 5 7 7 8 9 8 9 11 9 9 9 9 10
5 6 6 5 3 1 4 5 8 9 10 11 12 10 11 14 16 15 12 10 10 10 9 8 7 7 5 4 4 5 6 7 7 7 6 6 7 7 8 9 11 12 15 17
Wind_Direction
54 216 202 190 198 88 152 165 181 151 113 216 234 255 263 268 271 253 249 240 239 239 252 241 241 229 228 224 221 218 211 208 203 196 194 192 195 192 195 203 209 204 203 198
180 230 194 148 144 146 154 165 180 114 92 236 282 274 272 253 249 245 249 240 245 256 242 232 247 246 230 227 223 223 218 213 207 198 197 201 195 199 201 197 196 201 206 205
205 212 165 162 168 176 192 192 171 116 128 83 304 268 253 239 249 254 252 258 258 260 276 276 266 248 237 229 225 224 220 218 210 207 196 194 193 173 187 194 192 199 196 196
227 73 177 201 196 191 211 201 152 142 179 253 337 282 265 253 273 243 244 244 224 215 213 315 327 273 242 246 238 231 224 218 216 204 198 195 197 198 202 194 196 200 197 198
171 169 164 203 211 184 196 138 130 114 152 288 189 261 249 348 266 252 189 153 139 126 85 53 25 5 1 314 250 214 210 212 208 208 208 202 208 212 205 191 184 194 192 198
93 40 182 33 40 254 142 101 65 68 125 245 211 228 220 208 228 167 150 153 166 145 107 65 35 25 30 26 45 166 193 200 202 207 208 210 214 209 198 191 190 184 185 196
143 177 165 152 106 97 192 158 140 196 201 251 70 204 258 224 217 228 174 176 155 136 115 74 44 37 34 34 41 62 138 171 197 208 210 215 217 217 204 193 193 171 181 194
194 204 180 167 195 174 191 196 178 196 197 207 100 231 248 217 316 232 172 143 145 141 120 95 69 60 53 49 54 66 82 87 121 190 209 218 224 201 158 165 179 185 195 204
188 224 143 186 158 156 178 217 111 101 49 256 209 256 269 223 233 190 172 165 154 145 131 116 101 81 73 68 65 75 91 91 79 82 84 70 59 67 94 94 84 71 73 66
187 182 159 140 151 273 202 136 164 225 198 230 225 265 246 202 213 186 184 179 161 148 143 123 103 92 85 76 76 77 80 86 89 90 89 87 84 83 87 90 94 98 118 141
162 227 102 152 211 181 161 182 199 220 214 235 260 250 213 222 197 187 179 169 164 160 148 133 118 96 82 77 78 76 77 85 84 85 87 88 82 80 83 86 75 48 37 30
195 193 185 196 23 309 239 214 189 191 210 232 284 260 121 275 186 171 167 168 159 154 144 129 111 105 100 87 76 73 72 78 73 76 81 76 74 76 71 60 49 40 25 16
165 216 191 202 238 203 226 206 222 226 40 206 212 254 32 126 165 162 159 162 160 158 144 143 140 126 105 89 79 73 66 74 77 81 78 72 64 63 60 52 43 37 21 14
153 126 212 225 230 156 214 214 212 212 223 230 224 255 170 173 180 170 170 171 164 167 172 157 143 125 108 99 97 92 82 73 78 79 77 70 59 52 47 44 40 38 26 24
157 199 211 243 249 232 218 212 210 208 224 224 235 239 237 194 187 191 174 168 173 176 176 162 146 134 125 111 100 95 83 74 73 73 70 61 53 45 39 35 28 23 21 10
233 217 182 251 243 230 239 221 210 211 225 231 243 248 258 188 183 174 185 182 186 180 172 160 151 142 124 112 101 97 84 73 71 70 64 52 44 41 34 15 5 7 351 342
184 186 190 250 234 206 248 231 219 226 228 222 233 240 183 187 192 191 185 189 186 177 169 162 154 138 123 108 101 96 81 74 68 67 52 41 29 31 21 2 359 353 339 330
248 204 201 250 148 228 242 241 226 226 235 229 244 249 229 199 203 200 198 184 173 168 162 153 144 129 111 100 92 84 69 61 57 49 39 26 18 14 5 357 354 351 344 338
218 206 215 218 214 277 282 198 208 204 239 225 228 237 199 117 131 216 194 180 172 160 149 137 126 118 106 87 81 93 66 53 47 34 23 13 8 1 355 349 342 333 325 314
200 212 219 180 220 225 261 202 168 149 263 225 227 238 168 152 191 206 172 157 141 136 133 131 123 112 96 69 69 84 61 48 38 20 7 359 357 350 341 333 324 314 306 296
152 205 224 226 233 270 53 229 178 169 246 335 278 239 182 197 223 131 141 136 129 129 129 123 113 103 87 63 96 82 59 42 14 4 353 348 343 330 316 312 308 304 302 296
176 185 201 213 224 238 152 67 196 331 308 272 289 178 172 130 119 134 131 127 126 126 126 122 118 111 102 76 80 84 66 22 6 351 333 322 320 320 324 316 313 314 304 300
212 200 179 215 230 249 214 236 312 274 287 294 187 125 133 132 133 135 132 126 127 126 124 132 125 106 86 67 54 85 40 12 355 321 319 335 337 337 337 333 327 323 320 315
265 147 221 152 203 223 227 191 204 244 272 281 149 141 139 137 139 131 126 126 125 125 127 118 115 115 101 71 67 56 31 7 339 351 354 347 342 337 337 329 325 323 320 318
190 151 186 254 263 312 262 248 240 181 127 125 122 146 144 137 139 135 131 130 126 126 122 119 121 119 104 72 63 45 28 8 8 358 347 345 339 333 324 320 317 310 299 300
191 183 196 249 168 208 271 260 179 169 159 150 141 135 140 143 133 128 119 119 125 129 126 121 113 113 98 86 62 38 22 17 5 344 340 333 321 321 314 313 311 303 298 303